Time,TemperatureF,DewpointF,PressureIn,WindDirection,WindDirectionDegrees,WindSpeedMPH,WindSpeedGustMPH,Humidity,HourlyPrecipIn,Conditions,Clouds,dailyrainin,SoftwareType,DateUTC
2013-08-30 04:00:00,76.5,73.7,29.37,SSE,158,0.9,0.9,91,0.00,,,0.00,WUHU216HW,2013-08-30 09:00:00,
2013-08-30 04:05:00,76.5,73.7,29.37,NW,315,0.4,1.1,91,0.00,,,0.00,WUHU216HW,2013-08-30 09:05:00,
2013-08-30 04:10:00,76.3,73.5,29.37,South,189,0.8,2.0,91,0.00,,,0.00,WUHU216HW,2013-08-30 09:10:00,
2013-08-30 04:15:00,76.3,73.8,29.37,SW,225,1.6,2.0,92,0.00,,,0.00,WUHU216HW,2013-08-30 09:15:00,
2013-08-30 04:20:00,76.3,73.5,29.37,South,174,0.4,2.0,91,0.00,,,0.00,WUHU216HW,2013-08-30 09:20:00,
2013-08-30 04:25:00,76.3,73.8,29.37,WNW,293,1.1,1.6,92,0.00,,,0.00,WUHU216HW,2013-08-30 09:25:00,
2013-08-30 04:30:00,76.3,73.8,29.37,WNW,293,1.1,1.1,92,0.00,,,0.00,WUHU216HW,2013-08-30 09:30:00,
2013-08-30 11:36:00,100.1,79.7,29.32,SSE,158,1.1,1.1,52,0.00,,,0.00,WUHU216HW,2013-08-30 16:36:00,
2013-08-30 11:41:00,100.8,80.9,29.32,WSW,248,1.8,2.0,53,0.00,,,0.00,WUHU216HW,2013-08-30 16:41:00,
2013-08-30 11:46:00,101.3,80.2,29.32,SE,135,1.8,2.7,51,0.00,,,0.00,WUHU216HW,2013-08-30 16:46:00,
2013-08-30 11:51:00,101.2,80.7,29.31,WNW,294,1.6,2.9,52,0.00,,,0.00,WUHU216HW,2013-08-30 16:51:00,
2013-08-30 11:56:00,101.5,81.0,29.31,SSW,203,1.4,2.9,52,0.00,,,0.00,WUHU216HW,2013-08-30 16:56:00,
2013-08-30 12:01:00,102.1,80.9,29.31,ESE,111,1.0,2.9,51,0.00,,,0.00,WUHU216HW,2013-08-30 17:01:00,
2013-08-30 12:06:00,103.1,81.2,29.31,West,259,1.1,2.9,50,0.00,,,0.00,WUHU216HW,2013-08-30 17:06:00,
2013-08-30 12:11:00,103.1,80.6,29.31,ESE,113,1.8,3.1,49,0.00,,,0.00,WUHU216HW,2013-08-30 17:11:00,
2013-08-30 12:16:00,102.2,80.4,29.31,SSW,203,1.1,3.1,50,0.00,,,0.00,WUHU216HW,2013-08-30 17:16:00,
2013-08-30 12:21:00,102.2,79.7,29.30,SE,135,1.8,2.7,49,0.00,,,0.00,WUHU216HW,2013-08-30 17:21:00,
2013-08-30 12:26:00,102.2,79.7,29.30,SSE,157,2.4,3.8,49,0.00,,,0.00,WUHU216HW,2013-08-30 17:26:00,
2013-08-30 12:31:00,101.9,80.7,29.30,South,180,1.1,3.8,51,0.00,,,0.00,WUHU216HW,2013-08-30 17:31:00,
2013-08-30 12:36:00,103.1,80.6,29.30,SE,135,1.3,3.4,49,0.00,,,0.00,WUHU216HW,2013-08-30 17:36:00,
2013-08-30 12:41:00,103.1,80.6,29.30,South,177,2.0,3.1,49,0.00,,,0.00,WUHU216HW,2013-08-30 17:41:00,
2013-08-30 12:42:00,103.0,79.8,29.30,SSE,158,1.6,1.6,48,0.00,,,0.00,WUHU216HW,2013-08-30 17:42:00,
2013-08-30 12:46:00,103.0,79.8,29.30,SSE,158,1.6,3.1,48,0.00,,,0.00,WUHU216HW,2013-08-30 17:46:00,
2013-08-30 12:51:00,103.0,79.8,29.30,SSE,158,1.6,2.0,48,0.00,,,0.00,WUHU216HW,2013-08-30 17:51:00,